Theta_e
301 300 302 303 304 306 306 306 305 304 304 303 304 305 306 307 307 307 308 308 308 309 309 309 308 308 307 307 307 306 306 306 306 306 305 305 305 304 302 303 302 300
302 301 301 301 302 302 303 306 306 305 304 304 304 301 301 301 303 306 307 307 308 308 309 309 308 308 307 306 306 306 305 305 305 306 305 304 305 304 303 303 302 300
303 302 301 301 302 301 302 303 304 305 305 304 304 303 302 300 301 302 304 305 306 307 308 308 307 307 307 306 306 306 305 305 305 305 305 304 305 304 303 303 302 299
303 304 304 303 301 300 300 301 302 303 303 302 302 302 302 301 301 301 301 301 304 305 306 306 306 306 306 306 305 305 305 305 305 305 304 304 304 304 303 302 301 299
301 303 304 304 303 302 300 300 301 302 302 303 302 301 300 300 300 300 301 301 302 304 305 305 305 305 305 305 305 305 305 304 304 304 303 303 303 303 302 300 299 297
296 300 303 304 304 303 302 301 302 302 302 302 302 301 300 300 300 300 301 301 301 302 303 304 305 305 304 304 304 304 303 303 302 302 302 301 300 300 298 298 297 295
295 297 299 302 303 303 303 302 302 302 302 303 302 301 301 300 300 300 300 301 301 300 301 302 303 303 303 303 303 303 302 302 300 301 301 300 298 297 296 296 295 294
294 295 297 299 301 302 303 303 302 302 302 301 301 301 300 300 300 300 300 300 300 300 300 301 302 303 302 302 302 302 301 301 300 300 300 298 297 296 295 295 295 293
294 294 295 296 297 299 301 302 302 302 301 300 300 300 299 299 299 299 299 299 299 299 299 299 300 301 301 301 301 301 300 299 299 299 299 297 295 295 294 294 293 292
293 293 293 294 295 297 298 300 301 301 300 300 300 299 298 298 298 299 299 299 298 298 298 298 298 299 299 300 300 300 300 299 298 299 299 297 295 294 293 293 293 292
291 292 293 293 294 295 296 297 298 299 299 299 299 298 298 297 297 297 298 298 298 298 297 297 297 297 297 298 299 299 299 298 297 298 297 296 295 294 293 293 293 292
290 290 291 292 293 294 295 295 296 298 298 297 298 298 297 296 296 295 295 296 296 297 297 297 297 296 296 296 296 296 297 297 296 297 296 296 295 294 293 293 293 292
288 289 290 290 291 292 292 292 293 295 295 295 295 295 294 293 292 293 293 294 294 294 295 295 296 295 295 295 295 295 295 295 295 295 295 294 294 294 293 293 293 292
286 287 287 288 289 290 290 291 291 292 294 294 293 293 293 292 292 292 292 291 292 292 292 292 293 294 294 294 294 294 294 294 294 294 294 293 293 292 292 292 292 292
285 285 286 287 287 288 289 289 290 290 291 292 291 292 292 292 292 292 291 291 291 290 291 290 291 292 292 293 293 293 293 293 293 293 293 292 291 291 291 291 291 291
285 285 286 286 286 287 288 288 289 290 291 291 291 291 291 290 291 291 291 291 290 290 290 290 291 292 291 292 292 292 292 292 292 292 292 291 291 290 289 290 290 289
284 284 285 286 286 286 287 287 289 290 290 290 290 290 290 289 290 290 290 290 290 290 289 290 291 291 291 293 293 293 292 291 291 291 291 291 290 290 289 288 288 288
283 284 284 285 285 286 287 287 287 289 290 290 289 289 289 289 289 289 290 289 289 289 289 290 290 290 292 292 293 293 292 290 290 290 290 290 290 289 289 288 288 287
283 284 285 285 285 286 286 287 288 289 289 289 289 289 288 288 288 289 289 289 289 289 288 289 289 290 291 292 292 293 293 290 289 289 289 289 289 288 288 288 287 286
283 284 284 285 285 285 286 287 288 289 289 289 289 288 288 288 288 288 288 288 288 288 288 288 288 289 291 292 292 292 292 291 289 289 288 288 287 288 287 287 286 286
282 283 284 284 284 285 286 287 288 289 289 289 288 288 288 287 287 287 288 288 288 288 288 287 288 289 291 291 292 292 292 291 288 288 287 287 287 287 287 286 286 286
283 283 283 283 284 285 287 288 288 288 288 287 287 287 287 288 287 288 287 287 288 287 287 287 287 289 290 291 291 292 292 289 287 287 286 286 286 286 286 286 285 285
284 285 285 285 285 287 287 287 287 287 287 287 287 286 286 287 287 287 288 287 287 287 287 286 286 288 290 290 291 292 290 287 286 286 286 285 285 285 285 285 285 285
284 285 285 286 286 286 287 287 287 287 287 287 287 286 286 286 286 286 287 287 287 286 287 286 286 287 289 290 290 291 289 286 286 285 285 285 284 284 284 284 284 284
285 285 284 284 284 285 286 286 287 287 286 286 286 286 286 286 286 286 286 286 286 286 286 286 286 286 289 290 290 290 288 286 286 285 284 284 284 283 283 283 283 283
284 285 287 287 287 287 287 287 287 286 285 285 285 285 285 285 286 286 286 285 286 286 286 286 285 286 287 289 289 289 288 286 285 285 284 283 283 283 282 282 282 282
Wind_Speed
4 3 5 6 6 7 8 9 8 9 8 6 7 9 11 11 11 11 11 11 10 10 12 13 14 15 17 19 20 17 16 17 14 13 14 14 12 13 13 15 13 12
6 5 5 4 4 4 5 8 9 10 10 9 7 3 1 3 5 9 11 11 11 12 11 13 14 15 16 15 17 17 16 16 17 13 15 16 14 14 15 16 15 13
5 5 5 7 8 7 7 7 7 7 8 9 7 7 6 4 6 7 7 7 10 11 11 12 13 14 15 16 16 16 16 17 18 16 16 18 15 14 14 14 13 14
8 8 7 7 6 7 7 7 6 5 5 5 7 7 8 7 7 7 6 6 8 9 10 10 12 13 14 15 15 15 17 18 18 17 16 14 15 15 14 13 12 12
10 8 7 6 5 5 4 6 8 8 8 8 7 6 6 6 7 7 8 7 7 8 9 11 11 12 12 13 15 15 15 14 15 17 17 17 15 14 13 12 13 13
6 7 8 7 6 6 7 8 8 8 9 9 10 8 9 9 8 8 9 10 9 10 10 11 12 12 12 12 12 13 13 12 12 15 15 16 14 12 11 12 13 13
9 8 9 9 8 7 7 8 8 8 8 8 6 10 10 10 10 11 10 11 11 10 11 11 12 12 11 12 12 13 12 12 12 14 15 12 12 12 11 13 13 13
10 8 9 8 10 10 9 8 8 8 8 6 8 8 7 10 11 11 11 11 12 12 11 11 11 12 13 13 14 14 13 11 12 14 13 13 13 13 13 12 13 13
8 8 9 10 11 10 10 10 9 7 7 9 9 8 8 9 9 10 11 12 12 12 11 10 11 12 12 13 14 15 15 14 14 15 15 14 14 14 13 12 13 13
9 9 9 10 10 10 11 11 10 9 8 9 9 8 9 9 9 10 10 12 13 13 13 12 11 10 11 12 14 13 13 14 14 15 15 15 15 14 14 14 15 14
10 10 11 11 11 10 11 10 9 9 8 10 9 9 9 8 9 9 10 11 12 14 14 13 13 11 10 11 12 12 14 14 14 14 14 15 15 15 16 16 16 16
10 10 12 13 13 11 11 10 9 9 9 8 9 9 8 8 9 8 9 11 11 12 13 15 15 14 12 11 11 11 11 12 13 13 14 14 14 14 15 15 16 16
9 10 10 10 11 11 10 9 9 10 10 10 9 9 8 8 7 8 8 9 10 9 10 11 12 13 14 13 11 10 10 11 11 11 11 11 12 14 14 14 14 14
7 7 8 9 9 8 9 9 9 9 10 9 8 9 9 9 9 9 8 6 7 6 6 6 7 9 11 11 11 11 10 12 12 13 12 11 11 11 12 13 14 14
4 5 5 6 7 7 8 8 8 8 8 8 9 9 8 9 9 9 8 8 7 7 7 6 7 8 8 11 13 14 12 11 11 12 13 12 12 11 11 12 12 12
4 4 5 5 6 7 7 7 7 8 8 8 9 9 8 8 8 8 9 9 9 8 8 7 9 9 12 15 13 11 10 11 11 11 13 14 13 13 12 12 12 12
4 5 4 6 7 6 6 7 7 7 7 8 8 8 8 8 8 9 9 9 9 9 10 9 10 10 16 17 18 17 12 9 9 10 10 12 13 14 15 14 12 11
4 4 5 6 5 7 7 7 7 7 8 8 8 8 8 7 8 10 10 9 8 9 10 11 11 13 16 17 18 17 14 10 9 8 8 10 12 13 12 13 14 14
4 4 5 5 6 6 6 7 7 8 8 8 9 8 8 9 10 9 9 9 9 10 10 11 10 13 15 17 18 19 18 13 8 10 10 9 10 12 12 13 12 12
4 5 5 6 5 5 5 6 8 9 8 8 7 7 9 9 9 10 9 10 10 10 10 9 10 12 18 19 18 18 17 14 7 10 10 10 9 9 11 12 13 14
4 4 5 5 5 5 6 7 7 7 8 7 7 9 9 9 9 9 9 9 10 10 9 9 10 14 18 19 19 19 18 14 6 6 7 9 9 8 8 10 12 13
4 4 4 4 4 5 6 7 6 7 8 6 6 5 5 6 7 8 9 10 9 9 9 9 8 15 17 18 19 19 20 11 8 8 8 8 9 10 10 8 9 11
5 5 5 5 5 6 7 7 6 6 5 5 6 6 6 6 7 8 8 9 10 10 10 9 8 14 18 19 19 19 17 9 9 8 8 9 9 9 10 10 11 11
5 5 5 5 5 6 6 6 6 5 6 6 7 7 8 7 6 5 6 8 10 10 10 10 8 13 19 19 20 21 17 12 10 9 9 8 7 7 7 9 11 16
5 5 6 6 6 6 6 7 7 7 4 5 5 5 6 5 6 6 7 7 8 9 11 11 9 12 20 20 22 22 17 10 10 9 10 9 9 9 7 8 9 12
5 6 6 7 7 7 6 7 6 5 6 6 5 5 5 5 6 8 9 8 7 7 8 10 9 10 15 22 22 24 21 12 9 10 11 11 9 9 9 8 9 9
Wind_Direction
191 195 184 187 185 176 171 172 172 180 185 185 195 200 191 187 178 187 186 184 194 197 189 185 187 183 178 174 176 177 180 186 186 186 190 193 199 192 191 192 190 189
216 196 190 187 182 181 189 186 180 181 185 191 198 186 198 164 195 189 188 188 189 194 193 192 190 187 182 181 180 178 180 180 185 184 185 192 198 195 196 193 192 191
221 208 197 194 194 195 192 191 188 191 190 195 182 173 188 182 168 186 197 196 193 196 195 197 195 192 188 185 181 183 182 182 185 183 185 189 192 195 195 193 193 188
214 212 208 207 205 201 190 186 193 190 182 178 196 185 185 182 174 185 188 191 194 197 198 199 201 197 191 189 186 189 188 186 186 179 186 189 191 191 192 190 190 187
201 210 216 216 214 204 195 197 196 194 193 197 184 180 176 176 188 185 185 196 200 202 198 200 202 204 200 195 193 192 192 193 188 181 182 185 187 185 187 183 184 183
206 205 210 220 216 205 202 205 208 203 199 193 196 183 188 187 191 194 192 194 197 204 200 200 203 204 200 200 199 202 194 191 189 185 186 183 177 178 169 176 172 174
198 197 205 210 217 216 213 212 212 212 212 209 192 199 193 189 191 194 194 198 199 202 208 203 200 202 201 197 197 201 200 194 183 185 184 179 169 169 166 165 169 164
197 197 198 199 206 213 217 215 213 212 212 208 212 213 198 204 200 193 193 195 198 206 208 208 207 202 199 196 196 198 198 191 184 184 184 177 173 173 169 168 165 161
200 194 191 197 199 204 210 214 216 210 201 205 210 209 205 212 208 201 195 193 198 204 205 209 210 205 197 200 201 197 196 195 185 183 183 178 180 177 172 169 168 169
200 202 197 199 202 204 205 206 205 207 198 206 209 206 203 208 209 207 204 199 197 198 200 201 210 211 202 203 202 199 198 197 189 185 184 182 181 176 173 174 175 170
194 192 198 202 207 209 211 208 204 203 196 201 203 207 208 205 209 207 206 207 206 202 196 195 200 203 212 210 206 203 201 198 194 188 186 185 183 179 177 176 175 178
192 190 196 199 201 205 208 207 205 205 203 204 200 207 206 206 207 209 209 211 214 211 204 202 197 192 198 209 209 206 205 200 195 189 188 186 186 182 180 180 179 177
194 196 196 199 198 199 198 197 198 199 196 201 199 200 198 202 206 211 215 214 219 217 216 211 200 193 196 196 199 206 205 206 197 190 189 189 189 185 182 182 182 178
204 198 199 200 198 197 196 196 194 192 194 192 187 195 195 198 203 210 215 214 221 217 216 216 216 210 200 196 193 201 204 202 197 190 184 186 188 188 186 183 182 181
223 212 202 199 196 195 197 197 194 192 186 180 183 194 197 196 196 200 203 209 213 206 201 189 200 209 212 203 196 193 193 203 205 191 182 181 183 184 185 183 183 184
232 224 211 205 198 199 201 194 191 187 181 181 185 190 192 190 192 197 201 204 205 207 204 195 199 202 206 211 204 202 198 197 194 198 187 180 180 182 184 184 182 182
233 229 212 211 207 203 198 191 190 181 181 182 183 183 187 190 190 195 201 203 205 204 205 205 207 209 204 204 206 202 192 188 188 195 201 187 183 183 182 179 180 179
228 225 217 219 204 206 196 191 182 183 185 183 179 182 185 179 193 200 199 200 204 205 207 209 213 206 202 203 201 198 195 193 185 186 196 202 190 188 185 178 177 176
223 217 220 217 211 203 194 183 185 186 189 187 190 186 174 183 196 196 202 200 200 204 209 210 215 208 200 203 201 198 197 192 192 184 185 203 200 188 183 179 173 175
219 213 218 218 208 202 190 190 189 194 193 192 189 181 186 190 191 194 197 198 201 206 209 208 208 200 200 200 197 197 196 191 198 189 185 186 199 194 185 181 175 178
209 212 217 214 205 196 193 197 197 201 196 193 189 187 188 188 188 194 198 201 205 203 202 204 207 197 197 193 193 192 190 185 182 195 193 186 182 189 195 189 179 179
197 208 210 205 200 194 199 203 202 202 201 191 191 199 203 191 187 187 192 199 205 201 198 204 203 194 192 191 191 189 181 171 175 189 196 194 188 182 177 185 186 177
198 202 204 202 197 199 202 203 201 206 205 179 187 187 189 199 194 191 193 198 198 197 196 197 193 192 190 190 190 181 172 172 173 183 193 195 194 186 179 178 181 180
202 201 207 203 198 204 205 207 204 204 200 181 193 187 194 194 188 190 197 201 197 196 193 188 188 189 188 189 186 182 177 176 173 177 189 190 188 184 180 183 185 178
200 203 207 205 205 209 205 207 204 199 183 175 190 183 191 182 188 195 200 205 203 195 188 186 182 187 187 185 184 181 176 174 169 173 181 187 181 185 188 183 181 182
209 210 212 210 211 208 205 206 191 176 175 175 184 180 181 184 197 202 204 204 197 189 190 187 178 183 188 185 181 180 175 167 166 173 186 184 180 180 179 189 186 182